Regional Weather Roundup
Issued by NWS Charleston, WV

Home | Current Version | Previous Version | Graphics & Text | Print | Product List | Glossary On
Versions: 1 2 3 4 5 6 7 8 9 10 11 12 13 14 15 16 17 18 19 20 21 22 23 24 25 26 27 28 29 30 31 32 33 34 35 36 37 38 39 40 41 42 43 44 45 46 47 48 49 50
000
ASUS41 KRLX 250410
RWRRLX
West Virginia Regional Weather Roundup
National Weather Service Charleston WV
1200 AM EDT THU AUG 25 2016

Note: "fair" indicates few or no clouds below 12,000 feet with no
significant weather and/or obstructions to visibility.

WVZ003-250500-
Northern Panhandle of West Virginia

CITY           SKY/WX    TMP DP  RH WIND       PRES   REMARKS
WHEELING       CLOUDY    75  66  73 S8        30.10F
$$

WVZ009-250500-
Northwest West Virginia

CITY           SKY/WX    TMP DP  RH WIND       PRES   REMARKS
PARKERSBURG    MOCLDY    76  69  79 S5        30.13F
$$

WVZ006-250500-
Western West Virginia

CITY           SKY/WX    TMP DP  RH WIND       PRES   REMARKS
HUNTINGTON     CLOUDY    76  71  85 S3        30.11S
$$

WVZ015-250500-
West Central West Virginia

CITY           SKY/WX    TMP DP  RH WIND       PRES   REMARKS
CHARLESTON     CLOUDY    74  70  87 CALM      30.14S
$$

WVZ022-031-250500-
North Central West Virginia

CITY           SKY/WX    TMP DP  RH WIND       PRES   REMARKS
CLARKSBURG     PTCLDY    72  66  81 CALM      30.14F
MORGANTOWN     PTCLDY    73  65  75 S3        30.15F
$$

WVZ025-035-042-045-250500-
Southern West Virginia

CITY           SKY/WX    TMP DP  RH WIND       PRES   REMARKS
BECKLEY        PTCLDY    70  65  84 S6        30.25F
LOGAN            N/A     73  70  88 VRB5      30.17F
BLUEFIELD      PTCLDY    69  63  81 S5        30.28F
LEWISBURG      MOCLDY    67  65  91 CALM      30.25F
$$

WVZ047-250500-
Northern Mountains of West Virginia

CITY           SKY/WX    TMP DP  RH WIND       PRES   REMARKS
ELKINS         CLOUDY    66  63  90 CALM      30.21F
$$

WVZ052-250500-
Eastern Panhandle of West Virginia

CITY           SKY/WX    TMP DP  RH WIND       PRES   REMARKS
MARTINSBURG    CLEAR     71  65  81 SE3       30.14F
PETERSBURG     CLEAR     69  66  90 CALM      30.15F
$$



USA.gov is the U.S. government's official web portal to all federal, state and local government web resources and services.